Location: Bieg
(49.3499°N, 10.3835°E)
Time: 10:52:58
(UTC+00:00)

EXPRESS MD2 - Pass Details

Date: 23 May 2024
Orbit: 261 x 3330 km, 49.9° (Epoch: 20 June)

Event Time Altitude Azimuth Distance (km) Brightness Sun altitude
Exits shadow 23:29:55 -1° 95° (E) 2,398 6.6 -19.9°
Enters shadow 01:03:22 -54° 242° (WSW) 12,061 10.0 -16.0°
Maximum altitude 01:33:43 37° 147° (SSE) 680 3.6 -13.5°
